Weather Roundup
Issued by NWS Chicago, IL

Home | Current Version | Previous Version | Graphics & Text | Print | Product List | Glossary On
Versions: 1 2 3 4 5 6 7 8 9 10 11 12 13 14 15 16 17 18 19 20 21 22 23 24 25 26 27 28 29 30 31 32 33 34 35 36 37 38 39 40 41 42 43 44 45 46 47 48 49 50
473
NZUS59 KLOT 271203
HRRLOT

CHICAGO AREA WEATHER ROUNDUP
NATIONAL WEATHER SERVICE CHICAGO/ROMEOVILLE IL
700 AM CDT FRI MAY 27 2016

NOTE: "FAIR" INDICATES FEW OR NO CLOUDS BELOW 12,000 FEET WITH NO
SIGNIFICANT WEATHER AND/OR OBSTRUCTIONS TO VISIBILITY.

* THESE STATIONS ARE NOT UNDER NWS QUALITY CONTROL. THEY ALSO MAY NOT
  REPORT WEATHER SUCH AS PRECIPITATION OR FOG.

ILZ005-006-012>014-019>023-271300-
NORTHEAST ILLINOIS

CITY           SKY/WX    TMP DP  RH WIND       PRES   REMARKS
OHARE          CLOUDY    68  64  87 S7        29.88R
6HR MIN TEMP:  66; 6HR MAX TEMP:  74;

MIDWAY         PTSUNNY   70  63  78 S8        29.89R
6HR MIN TEMP:  69; 6HR MAX TEMP:  74;

AURORA         CLOUDY    69  65  86 S13       29.89S
6HR MIN TEMP:  67; 6HR MAX TEMP:  73;

LANSING*       MOSUNNY   66  62  87 S8        29.91R
WAUKEGAN       CLOUDY    70  66  87 S8        29.87R
6HR MIN TEMP:  64; 6HR MAX TEMP:  71;

DUPAGE AIRPORT CLOUDY    68  64  87 S8        29.88R
6HR MIN TEMP:  67; 6HR MAX TEMP:  72;

WHEELING       MOSUNNY   69  65  86 S8        29.89R
6HR MIN TEMP:  67; 6HR MAX TEMP:  74;

$$

WIZ051-052-058>065-066-070>072-271300-
SOUTHEAST WISCONSIN

CITY           SKY/WX    TMP DP  RH WIND       PRES   REMARKS
MILWAUKEE      PTSUNNY   70  66  87 S7        29.87R
6HR MIN TEMP:  65; 6HR MAX TEMP:  70;

KENOSHA*       SUNNY     71  67  87 S7        29.87S
RACINE*        SUNNY     69  64  84 CALM      29.88F
WAUKESHA       PTSUNNY   66  64  94 S3        29.89R FOG
$$

INZ001>003-010>013-019-020-271300-
NORTHWEST INDIANA

CITY           SKY/WX    TMP DP  RH WIND       PRES   REMARKS
GARY*          PTSUNNY   68  68 100 S7        29.92R
MICHIGAN CITY* NOT AVBL
RENSSELAER*    NOT AVBL
VALPARAISO     PTSUNNY   66  63  90 S10       29.94R
$$

LMZ740>746-271300-
SOUTHERN LAKE MICHIGAN

STATION/POSITION TIME  SKY/WX   TEMP WIND        PRES    VSBY
                                AIR  DIR/SP/G
                 (UTC)          (F)  (DEG/KT/KT) (MB)    (MI)
HARRISON CRIB    1100            66  170/  9/  9   N/A
BURNHAM HARBOR   1200            69  200/  8/ 11   N/A
CALUMET HARBOR   1100            67  150/  6/  9 1011.4F
BURNS HARBOR     1100            68  180/ 11/ 16 1012.9F
MICHIGAN CITY    1100            67  160/ 10/ 13   N/A
$$

ABBREVIATIONS USED IN REMARKS
   TC - TEMPERATURE IN CELSIUS
  WCI - WIND CHILL INDEX
   HX - HEAT INDEX
  VSB - VISIBILITY
$$




USA.gov is the U.S. government's official web portal to all federal, state and local government web resources and services.